User: anonymous   Login
Location: Nantong Television Tower
(32.0188°N, 120.8512°E)
Time: 20:31:11
(UTC+08:00)
Language:

ATLAS 3B CENTAUR R/B - Orbit

View from above orbital plane
View from above orbital plane
View from above satellite
View from above satellite

Ground track
Ground track

The orbit data is extracted from the following two-line orbital elements,

1 28118U 03057B   15114.70585443  .00129160  00000-0  22950-2 0  9992
2 28118 028.1275 212.9010 3641157 058.3194 033.2105 08.21040791220368
Epoch (UTC): 24 April 2015 16:56:25
Eccentricity: 0.3641157
inclination: 28.1275°
perigee height: 222 km
apogee height: 7780 km
right ascension of ascending node: 212.9010°
argument of perigee: 58.3194°
revolutions per day: 8.21040791
mean anomaly at epoch: 33.2105°
orbit number at epoch: 22036

The dashed part of the orbit path shows where the satellite is in the earth's shadow,  

DLR